Simultaneous Nadir Overpasses (SNOs) Predictions

Prediction of SNOs between GOES-16 and NOAA-19 Satellite Orbit:

Table of predicted SNOs for the next 14.0 days since TLE Epoch: 7/8/2023
Index Date Time (GOES-16) GOES-16 Lat,Lon NOAA-19 Lat,Lon Distance(km) Time Diff (sec)
1 07/08/2023 01:47:50 -0.01, -75.19 0.00, -77.06 207.85 80
2 07/09/2023 01:33:00 -0.01, -75.20 0.28, -74.03 133.08 80
3 07/10/2023 01:20:58 -0.01, -75.20 0.97, -71.10 468.66 80
4 07/11/2023 13:55:40 0.00, -75.23 0.83, -78.78 405.87 80
5 07/12/2023 13:43:38 0.00, -75.24 0.12, -75.86 69.91 80
6 07/13/2023 13:28:54 -0.00, -75.25 -0.53, -72.92 266.23 80
7 07/16/2023 01:51:44 0.00, -75.27 -0.57, -77.70 278.24 80
8 07/17/2023 01:37:02 0.00, -75.29 0.13, -74.78 58.26 80
9 07/18/2023 01:24:58 0.00, -75.30 0.78, -71.84 394.95 80
10 07/19/2023 13:57:00 -0.01, -75.34 0.94, -79.52 476.99 80
11 07/20/2023 13:44:56 -0.00, -75.36 0.27, -76.58 139.62 80
12 07/21/2023 13:35:33 -0.00, -75.38 -0.40, -73.65 197.96 80
